Mitchell, SD

10:45 PM CDT on October 23, 2019 (GMT -0500)
Mitchell Municipal

Weather History for KMHE - August, 2019

Change the Weather History Date:

Friday, August 9, 2019

  Actual Average Record
Temperature  
Mean Temperature 73 °F 73 °F  
Max Temperature 82 °F 84 °F 109 °F (1947)
Min Temperature 63 °F 62 °F 42 °F (1927)
Degree Days  
Heating Degree Days 0 0  
Month to date heating degree days 0 0  
Since 1 June heating degree days 16 40  
Since 1 July heating degree days 0 5  
Cooling Degree Days 8 8  
Month to date cooling degree days 86 79  
Year to date cooling degree days 666 597  
Since 1 June cooling degree days 647 557  
Growing Degree Days 22 (Base 50)    
Moisture  
Dew Point 62 °F    
Average Humidity 68    
Maximum Humidity 84    
Minimum Humidity 51    
Precipitation  
Precipitation 0.16 in 0.09 in 1.72 in (1962)
Month to date precipitation 1.40 0.67  
Year to date precipitation 22.32 14.64  
Snow  
Snow 0.00 in - 0.00 in ()
Month to date snowfall 0.0  
Since 1 June snowfall 0.0  
Since 1 July snowfall 0.0  
Snow Depth 0.00 in    
Sea Level Pressure  
Sea Level Pressure 29.92 in    
Wind  
Wind Speed 12 mph (SE)    
Max Wind Speed 22 mph    
Max Gust Speed 33 mph    
Visibility 9 miles    
Events Rain , Thunderstorm    
T = Trace of Precipitation, MM = Missing Value Source: NWS Daily Summary

Daily Weather History Graph

Daily Weather History Graph

Search for Another Location

Airport or City:

Astronomy

Aug. 09, 2019 Rise Set
Actual Time 6:29 AM CDT 8:45 PM CDT
Civil Twilight 5:57 AM CDT 9:16 PM CDT
Nautical Twilight 5:18 AM CDT 9:56 PM CDT
Astronomical Twilight 4:34 AM CDT 10:39 PM CDT
Moon 4:30 PM CDT (8/9) 1:26 AM CDT (8/9)
Length of Visible Light 15h 19m
Length of Day
14h 15m
Waxing Gibbous, 70% of the Moon is Illuminated
Aug 9
Waxing Gibbous
Aug 15
Full
Aug 23
Last Quarter
Aug 30
New
Sep 5
First Quarter

Hourly Weather History & Observations

Time (CDT) Temp. Heat Index Dew Point Humidity Pressure Visibility Wind Dir Wind Speed Gust Speed Precip Events Conditions
12:53 AM 64.9 °F - 57.0 °F 75% 29.99 in 10.0 mi East 3.5 mph - N/A   Clear
1:53 AM 64.0 °F - 57.0 °F 78% 29.97 in 10.0 mi East 6.9 mph - N/A   Clear
2:53 AM 64.0 °F - 55.9 °F 75% 29.98 in 10.0 mi SE 5.8 mph - N/A   Clear
3:53 AM 63.0 °F - 55.9 °F 78% 29.97 in 10.0 mi SE 4.6 mph - N/A   Clear
4:53 AM 64.0 °F - 55.9 °F 75% 29.98 in 10.0 mi SE 4.6 mph - N/A   Mostly Cloudy
5:53 AM 64.0 °F - 55.0 °F 73% 29.98 in 10.0 mi SSE 8.1 mph - N/A   Overcast
6:53 AM 64.9 °F - 55.0 °F 70% 29.99 in 10.0 mi SE 8.1 mph - N/A   Mostly Cloudy
7:53 AM 66.9 °F - 57.0 °F 70% 29.99 in 10.0 mi SE 8.1 mph - N/A   Scattered Clouds
8:53 AM 69.1 °F - 57.0 °F 65% 30.00 in 10.0 mi SE 11.5 mph - N/A   Overcast
9:53 AM 72.0 °F - 59.0 °F 64% 29.99 in 10.0 mi SSE 13.8 mph - N/A   Overcast
10:53 AM 73.9 °F - 60.1 °F 62% 29.99 in 10.0 mi SSE 11.5 mph - N/A   Overcast
11:53 AM 79.0 °F - 60.1 °F 52% 29.97 in 10.0 mi SSE 17.3 mph - N/A   Clear
12:53 PM 81.0 °F 81.6 °F 60.1 °F 49% 29.95 in 10.0 mi SE 18.4 mph 28.8 mph N/A   Partly Cloudy
1:53 PM 78.1 °F - 60.1 °F 54% 29.93 in 10.0 mi SSE 17.3 mph - N/A   Clear
2:53 PM 78.1 °F - 62.1 °F 58% 29.91 in 10.0 mi SE 13.8 mph - N/A   Clear
3:53 PM 78.1 °F - 64.0 °F 62% 29.89 in 10.0 mi SE 15.0 mph - 0.00 in   Mostly Cloudy
4:53 PM 78.1 °F - 64.0 °F 62% 29.87 in 10.0 mi SE 17.3 mph - N/A   Overcast
5:53 PM 77.0 °F - 64.0 °F 64% 29.85 in 10.0 mi ESE 15.0 mph 24.2 mph N/A   Overcast
6:49 PM 75.2 °F - 64.4 °F 69% 29.88 in 10.0 mi ESE 8.1 mph - N/A Thunderstorm Thunderstorm
6:53 PM 75.9 °F - 64.9 °F 69% 29.86 in 10.0 mi ESE 10.4 mph - N/A Thunderstorm Thunderstorm
7:18 PM 73.9 °F - 66.9 °F 79% 29.89 in 6.0 mi ESE 8.1 mph - 0.02 in Rain , Thunderstorm Rain
7:36 PM 72.0 °F - 66.9 °F 84% 29.90 in 5.0 mi ESE 10.4 mph - 0.06 in Rain Rain
7:50 PM 71.6 °F - 66.2 °F 83% 29.91 in 5.0 mi ESE 8.1 mph - 0.09 in Rain , Thunderstorm Rain
7:53 PM 71.1 °F - 66.9 °F 87% 29.90 in 4.0 mi ESE 8.1 mph - 0.10 in Rain , Thunderstorm Rain
8:05 PM 71.1 °F - 66.9 °F 87% 29.91 in 4.0 mi ENE 12.7 mph - 0.04 in Rain Rain
8:53 PM 70.0 °F - 66.0 °F 87% 29.86 in 10.0 mi ESE 18.4 mph 27.6 mph 0.06 in   Mostly Cloudy
9:53 PM 70.0 °F - 64.9 °F 84% 29.81 in 10.0 mi SE 19.6 mph 28.8 mph N/A   Clear
10:53 PM 72.0 °F - 66.0 °F 81% 29.82 in 10.0 mi SSE 18.4 mph 27.6 mph N/A   Clear
11:53 PM 71.1 °F - 66.0 °F 84% 29.82 in 10.0 mi SSE 9.2 mph - N/A   Clear